Regional Weather Roundup
Issued by NWS

Home | Current Version | Previous Version | Text Only | Print | Product List | Glossary On
Versions: 1 2 3 4 5 6 7 8 9 10 11 12 13 14 15 16 17 18 19 20 21 22 23 24 25 26 27 28 29 30 31 32 33 34 35 36 37 38 39 40 41 42 43 44 45 46 47 48 49 50
000
ASUS45 KREV 242010
RWRNV
NEVADA REGIONAL WEATHER ROUNDUP
NATIONAL WEATHER SERVICE RENO NV
100 PM PDT THU JUL 24 2014

NOTE: "FAIR" INDICATES FEW OR NO CLOUDS BELOW 12,000 FEET WITH NO
SIGNIFICANT WEATHER AND/OR OBSTRUCTIONS TO VISIBILITY.

NVZ001-003-004-242100-
WESTERN NEVADA

CITY           SKY/WX    TMP DP  RH WIND       PRES   REMARKS
RENO           SUNNY     81  35  19 NE3       30.13F
CARSON CITY    FAIR      81  32  17 E6        30.14F
SLIDE MTN        N/A     59  36  41 S1          N/A
PYRAMID LAKE     N/A     73 N/A N/A VRB12       N/A
FALLON         SUNNY     86  34  15 NE8       30.09F
LOVELOCK       SUNNY     82  34  17 E7        30.10F
HAWTHORNE      SUNNY     84  32  15 NW7       30.10F
$$

NVZ002-CAZ072-073-242100-
NORTHERN AND CENTRAL SIERRA

CITY           SKY/WX    TMP DP  RH WIND       PRES   REMARKS
S. LAKE TAHOE  SUNNY     76  39  26 VRB3      30.22F
TRUCKEE        SUNNY     75  30  19 S5        30.20F
SQUAW VLY 8000 NOT AVBL
SUSANVILLE     SUNNY     75  32  20 NE6       30.15F
BLUE CANYON    SUNNY     75  34  22 SW8       30.19F
MAMMOTH LAKES  FAIR      84   9   6 W12G18    30.24F
BRIDGEPORT     FAIR      82  23  11 S13G18    30.20F
$$

NVZ030-031-036-242100-
NORTHERN NEVADA

CITY           SKY/WX    TMP DP  RH WIND       PRES   REMARKS
ELKO           SUNNY     84  28  13 W10G21    30.15F
WINNEMUCCA     SUNNY     80  31  16 NW6       30.15F
WENDOVER       SUNNY     91  32  12 E13       30.05F
$$

NVZ035-037-242100-
CENTRAL NEVADA

CITY           SKY/WX    TMP DP  RH WIND       PRES   REMARKS
ELY            SUNNY     92  14   5 S22G30    30.17F
EUREKA           N/A     83  26  12 VRB3      30.17F
$$

NVZ013-014-242100-
SOUTH CENTRAL NEVADA

CITY           SKY/WX    TMP DP  RH WIND       PRES   REMARKS
TONOPAH        SUNNY     88  24  10 VRB5      30.13F
$$

NVZ017-020-022-242100-
SOUTHERN NEVADA

CITY           SKY/WX    TMP DP  RH WIND       PRES   REMARKS
LAS VEGAS      MOSUNNY  109  31   7 S17G24    29.81F
N. LAS VEGAS   SUNNY    107  24   5 S16G22    29.84F
NELLIS AFB     MOSUNNY  109  33   7 SW14      29.82F
HENDERSON      SUNNY    108  33   7 W13G22    29.88F
MERCURY        SUNNY    103  22   5 S14G28    29.95F
$$


USA.gov is the U.S. government's official web portal to all federal, state and local government web resources and services.